Location: Unspecified
(0.0000°N, 0.0000°E)
Time: 17:52:46
(UTC+00:00)

Vanguard 3 - Pass Details

Date: 06 February 2023
Orbit: 509 x 3249 km, 33.3° (Epoch: 20 March)

Event Time Altitude Azimuth Distance (km) Brightness Sun altitude
Rises 03:55:32 0° 287° (WNW) 7,205 - -33.2°
Reaches altitude 10° 04:01:01 10° 280° (W) 6,166 - -31.9°
Exits shadow 04:11:40 32° 254° (WSW) 4,310 10.3 -29.3°
Maximum altitude 04:18:08 39° 218° (SW) 3,610 10.2 -27.8°
Drops below altitude 10° 04:30:21 10° 152° (SSE) 4,431 11.4 -24.9°
Sets 04:33:36 0° 144° (SE) 5,077 12.0 -24.1°
